Location: Buffign�court
(47.8126°N, 6.0176°E)
Time: 17:15:21
(UTC+00:00)

FALCON 9 DEB - Pass Details

Date: 16 June 2021
Orbit: 362 x 379 km, 53.0° (Epoch: 04 August)

Event Time Altitude Azimuth Distance (km) Brightness Sun altitude
Exits shadow 22:56:45 61° 230° (SW) 446 2.9 -18.2°
Maximum altitude 22:57:14 84° 153° (SSE) 395 2.7 -18.3°
Drops below altitude 10° 23:00:25 10° 64° (ENE) 1,421 5.9 -18.3°
Sets 23:02:29 0° 63° (ENE) 2,277 7.0 -18.4°
